Lapse_Rate
4.0 4.0 4.0 4.1 4.2 4.1 3.8 3.2 2.6 2.8 3.5 3.8 3.3 3.5 3.4 3.5 4.1 4.6 4.5 4.5 4.3 4.5 5.4 5.9 6.4 6.9 7.0 6.9 7.0 7.1 6.9 6.6 6.3 5.2 5.2 5.5 5.3 5.4
4.2 4.2 4.2 4.3 4.1 3.9 3.4 2.9 2.6 2.4 2.2 3.2 3.7 3.9 4.3 4.1 4.0 4.0 4.2 4.4 4.5 4.4 4.5 4.8 5.5 6.4 6.8 6.9 7.1 7.1 7.1 6.8 6.8 6.3 6.0 5.6 5.5 5.1
4.2 4.3 4.3 4.1 3.8 3.4 2.9 2.8 2.8 3.0 2.9 3.6 3.9 4.3 4.3 3.9 3.8 3.8 4.2 4.6 5.0 4.8 4.3 4.3 4.6 4.9 5.7 6.4 6.9 7.0 7.2 7.2 7.0 6.8 6.9 6.5 6.0 5.2
4.4 4.3 4.1 3.8 3.5 3.3 3.4 3.6 3.7 3.9 3.7 3.3 3.6 3.7 4.0 4.4 4.3 4.3 4.4 4.3 4.3 4.6 4.6 4.5 4.4 4.2 4.7 5.5 6.3 6.8 6.8 7.1 7.2 7.3 7.3 7.0 6.6 6.5
4.2 4.0 3.8 3.7 3.8 3.9 4.0 4.2 4.4 4.0 3.5 2.9 3.3 4.1 4.3 4.1 4.4 4.7 4.3 4.3 4.6 4.8 4.8 4.9 4.9 4.8 4.6 4.9 5.4 6.2 6.6 6.6 6.9 7.3 7.5 7.6 7.3 7.2
4.2 4.0 4.1 4.3 4.4 4.3 4.6 4.8 4.2 3.5 3.3 3.3 4.0 4.0 3.8 4.1 4.5 4.5 4.7 5.0 5.1 5.0 5.0 5.6 6.0 5.8 5.2 4.6 4.7 5.2 5.6 6.2 6.6 7.1 7.5 7.8 7.5 7.1
4.4 4.5 4.6 4.6 4.6 5.1 4.2 3.8 3.4 3.0 3.5 3.8 4.0 3.7 3.9 4.4 4.6 4.7 4.7 5.0 5.3 5.4 5.8 6.0 6.0 6.1 5.7 5.0 4.6 4.7 4.8 5.6 6.4 6.9 7.2 7.6 7.9 7.5
4.7 4.9 5.0 5.3 5.4 4.9 4.4 4.0 3.2 3.3 3.3 3.6 3.6 3.6 3.9 4.7 4.6 4.6 4.5 4.6 5.1 6.2 5.8 5.8 6.5 6.5 6.3 5.6 4.9 4.7 4.7 4.8 5.6 6.3 6.9 7.4 7.7 7.9
4.9 5.1 5.6 5.4 4.8 4.5 4.3 4.0 3.9 3.5 4.1 4.1 4.0 3.9 4.3 4.5 4.7 4.6 4.7 5.0 5.3 6.1 5.5 5.9 6.5 6.3 6.5 6.1 5.3 5.0 4.7 4.7 5.0 5.8 6.6 7.2 7.6 7.8
5.5 5.6 5.2 4.9 4.7 4.3 3.4 3.7 3.4 3.5 4.3 4.0 4.1 4.1 4.6 4.7 4.7 4.5 4.9 5.2 5.8 6.2 5.8 5.9 6.4 6.5 6.4 6.1 5.6 5.1 4.7 4.9 5.0 5.6 6.2 6.9 7.4 7.8
5.8 5.3 5.0 4.9 4.6 3.6 3.6 3.4 3.6 4.6 4.6 4.8 4.7 4.9 5.0 5.0 4.9 4.8 5.5 5.5 6.2 6.4 6.6 6.0 6.4 6.3 6.1 5.9 5.2 4.9 5.0 4.8 5.0 5.3 5.8 6.8 7.4 7.9
5.8 5.3 5.0 4.6 4.0 3.7 3.6 3.3 3.9 4.1 4.4 4.9 5.2 5.2 5.0 5.2 5.3 5.1 5.3 5.6 6.2 6.3 6.3 5.9 6.1 5.9 5.9 5.8 5.3 4.8 4.6 4.7 4.9 5.3 5.5 6.2 6.8 7.2
5.4 5.0 4.8 4.2 3.7 3.5 3.2 3.7 3.8 3.9 4.4 4.5 4.7 5.0 5.2 5.3 5.5 5.6 5.3 5.1 5.4 6.0 5.9 5.4 5.9 6.1 5.7 6.3 5.7 5.4 5.2 5.2 5.5 5.8 6.0 6.2 6.4 6.8
4.7 4.5 4.3 3.9 3.8 3.8 3.8 3.9 4.0 4.1 4.2 4.4 4.7 5.0 5.1 5.3 5.4 5.1 4.6 4.6 4.6 4.7 4.9 5.0 5.3 5.6 5.6 5.9 5.9 5.7 5.8 6.0 6.1 6.0 6.3 6.5 6.6 6.8
4.3 4.1 4.2 4.1 4.0 3.8 4.0 4.0 3.9 3.9 4.1 4.4 4.6 4.7 4.6 4.4 4.3 4.2 4.4 4.1 4.1 4.0 4.1 4.5 4.6 4.9 4.9 5.5 6.0 6.1 6.2 6.2 6.4 6.4 6.1 6.4 6.9 7.0
4.1 4.3 4.2 4.1 3.8 3.7 4.0 4.1 3.9 3.9 3.8 3.9 4.0 3.9 3.7 3.5 3.5 3.4 3.5 3.5 3.6 3.9 4.1 4.3 4.5 4.8 5.1 5.4 5.7 5.9 6.1 6.4 6.4 6.2 5.9 6.6 7.0 6.7
4.2 4.4 4.1 4.0 4.0 4.2 4.3 3.9 4.0 4.1 4.3 4.1 4.0 3.8 3.4 3.2 3.1 3.0 3.2 3.2 3.3 3.6 3.8 4.1 4.6 4.9 5.1 5.3 5.6 5.8 6.1 6.3 6.1 5.8 5.9 6.3 6.6 6.6
4.3 3.9 3.9 3.9 4.0 4.1 4.1 4.3 4.3 4.3 4.1 4.1 3.7 3.2 3.1 3.0 3.1 3.2 3.1 3.2 3.5 3.8 3.9 4.1 4.2 4.4 4.9 5.3 5.5 5.7 6.0 6.0 5.9 5.9 5.9 5.8 6.0 6.1
3.9 3.9 4.0 3.9 4.0 3.9 4.0 4.1 4.2 4.1 4.1 4.1 3.9 3.7 3.6 3.5 3.6 3.7 3.6 3.6 3.7 3.9 3.9 3.8 3.5 3.7 4.4 4.8 5.1 5.5 5.5 5.8 5.6 5.7 5.6 5.8 6.3 6.0
4.0 4.0 4.0 3.8 3.9 4.0 4.1 4.0 4.1 4.2 4.3 4.3 4.3 4.4 4.6 4.5 4.5 4.4 4.2 4.1 4.0 4.2 4.1 3.9 3.6 3.5 3.7 4.4 4.9 5.1 5.4 5.5 5.7 5.9 5.7 5.6 5.6 5.4
4.0 4.0 3.7 3.8 4.0 4.0 3.8 4.0 4.3 4.5 4.3 4.4 4.5 4.5 4.4 4.3 4.2 4.1 4.1 4.1 4.1 4.0 4.0 4.0 3.8 3.8 3.8 4.1 4.6 4.7 4.6 4.8 5.0 5.0 5.2 5.0 5.1 4.8
3.9 3.8 3.9 3.9 4.0 3.9 4.2 4.5 4.7 4.6 4.8 4.9 4.9 4.9 4.8 4.8 4.7 4.6 4.6 4.7 4.8 4.7 4.2 4.1 4.0 4.1 4.0 4.0 4.1 4.2 4.1 4.2 4.3 4.4 4.4 4.2 4.3 4.3
3.7 3.9 4.1 4.1 3.9 4.2 4.6 4.8 4.7 5.0 5.1 5.1 4.9 4.9 4.9 4.8 4.8 4.8 4.7 4.7 4.7 4.6 4.7 4.7 4.7 4.4 4.1 3.9 4.0 3.9 3.9 3.9 3.8 3.8 3.7 3.4 3.4 3.5
Wind_Speed
10 10 10 9 9 9 9 10 11 16 17 15 14 14 10 12 16 15 18 27 30 30 32 34 33 30 34 36 35 32 31 31 29 28 29 29 26 27
9 12 12 10 11 10 10 10 10 12 17 14 15 16 16 12 16 16 17 26 29 32 32 31 29 31 34 35 35 35 33 31 29 30 30 30 28 29
13 13 14 14 10 10 10 11 11 11 14 16 14 15 19 18 16 15 17 15 15 27 32 33 32 33 35 35 35 35 34 32 30 26 28 30 29 27
14 14 15 11 14 13 10 13 12 13 14 19 16 15 18 17 17 17 14 13 15 26 31 33 35 34 33 34 33 34 30 28 27 30 29 29 30 28
15 15 15 15 14 12 13 12 13 12 12 13 16 14 14 14 15 14 15 16 13 22 28 31 31 33 34 35 33 31 30 26 28 26 24 24 27 27
15 15 15 14 15 14 14 15 13 13 14 14 14 14 13 15 12 14 15 13 14 14 21 26 31 31 34 34 29 29 28 25 29 27 25 23 23 22
16 15 14 16 23 22 12 13 15 14 13 14 15 13 10 13 14 14 15 15 16 12 14 13 13 12 14 23 23 25 27 27 28 27 26 24 21 21
15 14 14 19 18 25 25 30 24 17 18 15 16 12 14 15 16 14 15 15 18 10 14 15 12 14 13 12 25 27 29 29 30 28 26 25 23 21
16 15 14 12 18 15 24 28 25 29 29 18 18 15 18 18 18 19 17 16 17 16 14 16 12 13 12 12 24 30 29 27 28 29 27 26 24 23
15 16 16 16 17 20 18 18 17 16 18 15 17 17 17 18 18 16 19 19 15 13 12 15 10 13 11 11 23 28 28 29 30 30 27 24 23 22
14 15 17 18 25 30 20 18 20 18 21 28 29 33 34 32 26 14 12 13 15 13 9 13 12 10 12 13 12 25 16 21 24 23 23 21 20 20
14 15 23 23 30 31 20 19 18 18 16 18 16 17 20 19 27 15 12 13 14 14 10 12 12 11 10 6 6 9 8 21 25 25 24 27 25 11
12 13 12 28 31 31 33 16 19 21 21 14 14 12 13 13 11 11 13 12 13 14 13 12 11 11 9 11 9 7 9 10 10 14 24 27 28 21
15 13 15 29 31 32 23 30 31 26 12 12 12 12 12 12 12 13 16 15 14 17 17 15 10 11 11 9 9 7 8 10 6 8 8 7 14 20
13 23 27 31 29 20 26 29 26 11 12 11 12 13 12 13 15 15 14 16 16 16 13 16 12 9 4 6 8 9 9 4 5 5 5 9 6 5
20 13 22 23 23 22 17 15 11 11 12 11 12 12 12 12 12 12 11 12 10 10 8 5 4 4 5 6 7 8 7 3 5 3 5 8 8 7
22 12 11 11 12 12 11 12 11 11 11 11 12 13 12 12 12 12 12 10 6 6 5 6 7 5 5 7 4 5 2 2 3 3 6 8 9 8
13 11 11 11 12 13 13 13 12 16 12 12 12 11 11 11 12 11 9 7 6 5 4 5 6 5 3 2 12 5 3 2 3 5 6 11 10 7
10 11 11 11 12 12 12 12 13 12 14 11 11 11 11 10 14 9 9 9 8 6 5 4 6 4 3 3 3 18 3 3 7 8 8 8 8 7
10 11 11 11 12 12 12 12 12 12 12 11 11 11 10 9 10 9 9 8 8 6 5 4 5 6 4 4 3 5 18 5 8 9 9 9 10 20
11 11 11 12 12 12 12 12 13 12 13 11 10 10 10 9 8 8 8 14 13 5 6 5 4 7 3 3 4 8 9 20 13 8 7 9 7 7
10 11 12 12 11 12 11 11 12 12 11 10 10 10 9 8 8 7 7 8 6 5 3 2 4 2 5 5 7 8 8 8 14 22 21 12 2 3
11 12 12 12 11 11 11 11 12 11 11 11 10 9 9 9 8 6 5 7 6 4 3 3 3 3 5 6 8 6 8 8 6 9 8 11 20 21
Wind_Direction
308 303 301 300 297 300 297 298 303 303 300 306 305 307 302 315 288 317 299 307 301 304 298 296 287 293 294 295 289 295 294 292 287 290 285 285 280 269
305 306 303 301 304 297 298 296 293 291 292 302 304 304 301 306 300 295 291 306 295 294 292 294 295 293 295 294 293 292 290 289 291 282 281 280 276 267
304 303 304 304 301 302 305 296 294 290 294 294 296 305 302 301 303 302 290 293 287 292 296 294 294 294 290 288 286 286 285 285 284 287 286 286 286 274
307 306 303 307 302 303 298 297 298 301 294 295 302 300 296 303 299 302 300 297 294 285 287 292 290 287 287 290 286 281 279 283 289 289 282 279 275 279
307 308 305 304 304 302 303 307 299 297 303 299 296 294 298 297 298 298 305 298 292 293 300 299 298 296 292 290 286 285 287 287 286 279 278 290 271 267
307 304 300 303 302 311 299 296 300 306 298 289 294 295 296 297 300 307 308 299 301 297 298 292 289 290 290 284 289 291 285 287 291 287 282 277 280 259
304 300 302 302 302 298 302 306 310 296 298 297 299 301 304 305 306 309 297 299 295 299 295 292 292 291 286 290 285 287 284 287 288 283 280 279 279 276
300 305 305 304 304 309 312 306 300 304 305 297 291 293 303 308 306 300 300 296 298 298 294 293 292 287 283 281 284 287 288 288 285 279 276 274 274 274
307 310 306 310 315 315 301 302 305 308 302 303 298 302 305 304 303 297 291 292 292 297 294 287 294 281 282 279 290 291 287 288 289 283 278 273 265 261
308 309 311 316 310 304 309 313 307 308 297 305 294 298 296 295 287 291 299 293 286 286 285 288 295 294 287 286 292 291 284 285 281 279 280 267 259 251
309 315 310 305 305 316 317 313 309 308 303 304 306 304 304 304 305 301 295 295 292 290 300 291 294 300 304 290 281 283 312 317 309 296 284 276 271 268
311 307 307 311 315 320 316 314 312 310 311 308 309 306 304 297 297 293 294 293 293 293 299 296 292 294 297 268 288 312 303 305 298 293 292 279 263 248
313 311 311 311 318 316 318 320 308 312 316 314 309 304 300 297 298 295 291 289 290 288 288 289 288 287 280 289 293 297 299 296 296 291 285 265 240 223
312 311 309 318 319 321 323 316 319 322 316 307 304 303 306 307 304 299 292 285 278 278 284 279 276 277 281 291 298 304 301 296 297 302 307 8 198 195
316 312 321 318 323 325 321 320 323 314 309 306 309 309 310 306 302 297 293 285 281 278 276 271 266 276 306 295 294 296 303 300 319 329 341 37 21 75
316 313 318 323 324 319 319 316 314 312 313 314 310 308 307 308 305 305 300 297 290 289 300 351 356 302 287 280 274 281 278 301 335 339 44 44 34 47
325 321 323 325 319 318 317 316 315 314 317 316 314 311 311 311 311 310 304 307 315 346 339 344 333 300 280 333 302 251 296 351 358 349 70 67 41 43
328 326 321 320 319 319 318 317 317 319 319 316 312 310 310 313 310 313 320 320 331 340 334 337 333 326 243 108 18 0 13 32 29 38 62 85 67 57
325 319 319 319 318 317 315 316 316 317 315 312 310 312 312 312 320 328 334 336 339 340 340 343 342 340 350 56 342 8 24 37 74 63 60 70 84 72
319 319 318 318 316 314 314 315 315 315 315 313 315 311 312 312 316 328 330 326 330 338 340 359 359 2 16 12 5 22 37 66 87 82 76 75 77 74
320 319 318 316 314 312 312 314 313 312 315 314 309 310 312 313 320 323 323 326 331 334 341 360 343 336 292 296 61 54 54 59 66 79 82 80 76 82
322 318 316 314 313 313 314 314 314 314 314 313 312 310 312 315 316 316 316 316 318 329 337 9 350 346 54 62 62 59 60 55 52 62 57 56 97 93
317 315 314 314 312 313 314 315 313 311 311 310 309 313 325 322 317 310 312 315 321 347 346 46 23 29 61 82 78 72 71 66 69 71 56 73 105 100